Location: Azul
(36.7830°S, 59.8500°W)
Time: 09:52:57
(UTC-03:00)

ISS - Pass Details

Date: 09 December 2017
Orbit: 402 x 406 km, 51.6° (Epoch: 16 December)

Event Time Altitude Azimuth Distance (km) Brightness Sun altitude
Exits shadow 02:36:45 28° 132° (SE) 806 -1.8 -25.4°
Drops below altitude 10° 02:38:28 10° 131° (SE) 1,483 -0.1 -25.3°
Sets 02:40:34 0° 131° (SE) 2,351 1.2 -25.1°
